| time (UTC) | temp C | wind direction | speed KPH | gust KPH | rain 1hr cm | rain 24hr cm | rain mn cm | humidity % | barometer mb |
| 20260503022154 | 6 | 135 | 0.0 | 0.0 | 0.00 | 0.00 | 0.00 | 87 | 1008.0 |
| 20260503021655 | 7 | 113 | 0.0 | 0.0 | 0.00 | 0.00 | 0.00 | 87 | 1008.0 |
| 20260503021156 | 7 | 135 | 0.0 | 0.0 | 0.00 | 0.00 | 0.00 | 87 | 1008.0 |
| 20260503020656 | 7 | 135 | 0.0 | 0.0 | 0.00 | 0.00 | 0.00 | 86 | 1008.0 |
| 20260503020157 | 7 | 135 | 4.8 | 4.8 | 0.00 | 0.00 | 0.00 | 86 | 1008.0 |
| 20260503015654 | 7 | 135 | 0.0 | 0.0 | 0.00 | 0.00 | 0.00 | 86 | 1008.0 |
| 20260503015154 | 7 | 135 | 0.0 | 0.0 | 0.00 | 0.00 | 0.00 | 86 | 1008.0 |
| 20260503014654 | 7 | 135 | 0.0 | 0.0 | 0.00 | 0.00 | 0.00 | 85 | 1007.0 |
| 20260503014154 | 7 | 135 | 0.0 | 0.0 | 0.00 | 0.00 | 0.00 | 85 | 1008.0 |
| 20260503013654 | 7 | 135 | 0.0 | 0.0 | 0.00 | 0.00 | 0.00 | 85 | 1007.0 |
| 20260503013154 | 7 | 135 | 0.0 | 0.0 | 0.00 | 0.00 | 0.00 | 84 | 1007.0 |
| 20260503012656 | 7 | 135 | 0.0 | 0.0 | 0.00 | 0.00 | 0.00 | 83 | 1007.0 |
| 20260503012155 | 8 | 135 | 0.0 | 0.0 | 0.00 | 0.00 | 0.00 | 82 | 1007.0 |
| 20260503011656 | 8 | 135 | 0.0 | 0.0 | 0.00 | 0.00 | 0.00 | 81 | 1007.0 |
| 20260503011154 | 8 | 135 | 0.0 | 0.0 | 0.00 | 0.00 | 0.00 | 81 | 1007.0 |
| 20260503010654 | 8 | 135 | 0.0 | 0.0 | 0.00 | 0.00 | 0.00 | 80 | 1007.0 |
| 20260503010155 | 8 | 135 | 0.0 | 0.0 | 0.00 | 0.00 | 0.00 | 80 | 1007.0 |
| 20260503005655 | 8 | 135 | 0.0 | 0.0 | 0.00 | 0.00 | 0.00 | 79 | 1007.0 |
| 20260503005154 | 8 | 135 | 0.0 | 0.0 | 0.00 | 0.00 | 0.00 | 78 | 1007.0 |
| 20260503004654 | 9 | 135 | 0.0 | 0.0 | 0.00 | 0.00 | 0.00 | 77 | 1007.0 |
| 20260503004155 | 9 | 135 | 0.0 | 0.0 | 0.00 | 0.00 | 0.00 | 78 | 1006.0 |
| 20260503003654 | 9 | 135 | 1.6 | 3.2 | 0.00 | 0.00 | 0.00 | 77 | 1006.0 |
| 20260503003154 | 10 | 135 | 0.0 | 0.0 | 0.00 | 0.00 | 0.00 | 77 | 1006.0 |
| 20260503002654 | 10 | 135 | 0.0 | 0.0 | 0.00 | 0.00 | 0.00 | 76 | 1006.0 |
| 20260503002155 | 10 | 135 | 0.0 | 0.0 | 0.00 | 0.00 | 0.00 | 75 | 1007.0 |
| 20260503001654 | 10 | 135 | 0.0 | 0.0 | 0.00 | 0.00 | 0.00 | 75 | 1006.0 |
| 20260503001156 | 10 | 135 | 0.0 | 0.0 | 0.00 | 0.00 | 0.00 | 74 | 1006.0 |
| 20260503000654 | 10 | 135 | 0.0 | 0.0 | 0.00 | 0.00 | 0.00 | 73 | 1006.0 |
| 20260503000154 | 10 | 135 | 0.0 | 0.0 | 0.00 | 0.00 | 0.00 | 73 | 1006.0 |
| 20260502235654 | 11 | 135 | 0.0 | 0.0 | 0.00 | 0.00 | 0.00 | 69 | 1006.0 |
| 20260502235154 | 11 | 135 | 0.0 | 0.0 | 0.00 | 0.00 | 0.00 | 69 | 1006.0 |
| 20260502234654 | 11 | 135 | 0.0 | 0.0 | 0.00 | 0.00 | 0.00 | 67 | 1006.0 |
| 20260502234154 | 11 | 135 | 0.0 | 0.0 | 0.00 | 0.00 | 0.00 | 62 | 1006.0 |
| 20260502233654 | 12 | 135 | 0.0 | 0.0 | 0.00 | 0.00 | 0.00 | 63 | 1006.0 |
| 20260502233156 | 12 | 135 | 0.0 | 1.6 | 0.00 | 0.00 | 0.00 | 59 | 1006.0 |
| 20260502232655 | 12 | 135 | 0.0 | 0.0 | 0.00 | 0.00 | 0.00 | 59 | 1006.0 |
| 20260502232154 | 12 | 135 | 0.0 | 0.0 | 0.00 | 0.00 | 0.00 | 54 | 1005.0 |
| 20260502231654 | 12 | 135 | 0.0 | 0.0 | 0.00 | 0.00 | 0.00 | 54 | 1006.0 |
| 20260502231154 | 13 | 135 | 0.0 | 0.0 | 0.00 | 0.00 | 0.00 | 52 | 1006.0 |
| 20260502230654 | 13 | 135 | 0.0 | 0.0 | 0.00 | 0.00 | 0.00 | 53 | 1006.0 |
| 20260502230155 | 13 | 135 | 0.0 | 0.0 | 0.00 | 0.00 | 0.00 | 49 | 1005.0 |
| 20260502225654 | 13 | 135 | 0.0 | 1.6 | 0.00 | 0.00 | 0.00 | 46 | 1005.0 |
| 20260502225154 | 13 | 135 | 0.0 | 0.0 | 0.00 | 0.00 | 0.00 | 47 | 1005.0 |
| 20260502224654 | 13 | 135 | 0.0 | 0.0 | 0.00 | 0.00 | 0.00 | 47 | 1006.0 |
| 20260502224154 | 13 | 113 | 0.0 | 0.0 | 0.00 | 0.00 | 0.00 | 43 | 1005.0 |
| 20260502223654 | 13 | 113 | 3.2 | 3.2 | 0.00 | 0.00 | 0.00 | 45 | 1005.0 |
| 20260502223156 | 13 | 135 | 1.6 | 1.6 | 0.00 | 0.00 | 0.00 | 46 | 1005.0 |
| 20260502222655 | 13 | 135 | 1.6 | 3.2 | 0.00 | 0.00 | 0.00 | 46 | 1005.0 |
| 20260502222154 | 13 | 135 | 1.6 | 3.2 | 0.00 | 0.00 | 0.00 | 46 | 1005.0 |
| 20260502221654 | 13 | 135 | 4.8 | 6.4 | 0.00 | 0.00 | 0.00 | 47 | 1005.0 |
| 20260502221155 | 13 | 113 | 4.8 | 8.0 | 0.00 | 0.00 | 0.00 | 46 | 1005.0 |
| 20260502220655 | 13 | 135 | 1.6 | 1.6 | 0.00 | 0.00 | 0.00 | 49 | 1005.0 |
| 20260502220154 | 13 | 135 | 0.0 | 1.6 | 0.00 | 0.00 | 0.00 | 48 | 1005.0 |
| 20260502215655 | 13 | 113 | 1.6 | 3.2 | 0.00 | 0.00 | 0.00 | 46 | 1005.0 |
| 20260502215154 | 13 | 135 | 0.0 | 1.6 | 0.00 | 0.00 | 0.00 | 49 | 1005.0 |
| 20260502214655 | 13 | 113 | 1.6 | 3.2 | 0.00 | 0.00 | 0.00 | 46 | 1005.0 |
| 20260502214154 | 13 | 113 | 4.8 | 6.4 | 0.00 | 0.00 | 0.00 | 44 | 1005.0 |
| 20260502213654 | 13 | 113 | 1.6 | 3.2 | 0.00 | 0.00 | 0.00 | 45 | 1005.0 |
| 20260502213154 | 13 | 135 | 1.6 | 3.2 | 0.00 | 0.00 | 0.00 | 46 | 1005.0 |
| 20260502212654 | 14 | 135 | 1.6 | 3.2 | 0.00 | 0.00 | 0.00 | 44 | 1005.0 |
| 20260502212155 | 13 | 135 | 0.0 | 1.6 | 0.00 | 0.00 | 0.00 | 44 | 1005.0 |
| 20260502211654 | 13 | 113 | 9.7 | 11.3 | 0.00 | 0.00 | 0.00 | 43 | 1005.0 |
| 20260502211154 | 13 | 113 | 3.2 | 4.8 | 0.00 | 0.00 | 0.00 | 43 | 1005.0 |
| 20260502210654 | 13 | 135 | 0.0 | 0.0 | 0.00 | 0.00 | 0.00 | 45 | 1005.0 |
| 20260502210154 | 13 | 135 | 1.6 | 3.2 | 0.00 | 0.00 | 0.00 | 44 | 1005.0 |
| 20260502205654 | 13 | 135 | 1.6 | 3.2 | 0.00 | 0.00 | 0.00 | 45 | 1005.0 |
| 20260502205154 | 13 | 113 | 3.2 | 4.8 | 0.00 | 0.00 | 0.00 | 43 | 1005.0 |
| 20260502204654 | 13 | 135 | 4.8 | 4.8 | 0.00 | 0.00 | 0.00 | 45 | 1005.0 |
| 20260502204154 | 13 | 135 | 8.0 | 11.3 | 0.00 | 0.00 | 0.00 | 45 | 1005.0 |
| 20260502203654 | 13 | 113 | 3.2 | 3.2 | 0.00 | 0.00 | 0.00 | 45 | 1005.0 |
| 20260502203154 | 13 | 113 | 0.0 | 1.6 | 0.00 | 0.00 | 0.00 | 48 | 1005.0 |
| 20260502202654 | 13 | 113 | 1.6 | 3.2 | 0.00 | 0.00 | 0.00 | 46 | 1005.0 |
| 20260502202154 | 13 | 135 | 0.0 | 0.0 | 0.00 | 0.00 | 0.00 | 46 | 1005.0 |
| 20260502201654 | 13 | 135 | 3.2 | 3.2 | 0.00 | 0.00 | 0.00 | 45 | 1005.0 |
| 20260502201156 | 13 | 113 | 0.0 | 1.6 | 0.00 | 0.00 | 0.00 | 47 | 1006.0 |
| 20260502200654 | 13 | 135 | 0.0 | 0.0 | 0.00 | 0.00 | 0.00 | 47 | 1006.0 |
| 20260502200154 | 13 | 113 | 0.0 | 1.6 | 0.00 | 0.00 | 0.00 | 48 | 1006.0 |
| 20260502195654 | 13 | 113 | 4.8 | 6.4 | 0.00 | 0.00 | 0.00 | 46 | 1006.0 |
| 20260502195154 | 13 | 135 | 0.0 | 0.0 | 0.00 | 0.00 | 0.00 | 49 | 1006.0 |
| 20260502194654 | 12 | 113 | 4.8 | 6.4 | 0.00 | 0.00 | 0.00 | 47 | 1006.0 |
| 20260502194155 | 13 | 113 | 1.6 | 3.2 | 0.00 | 0.00 | 0.00 | 48 | 1006.0 |
| 20260502193655 | 12 | 113 | 1.6 | 8.0 | 0.00 | 0.00 | 0.00 | 48 | 1006.0 |
| 20260502193154 | 12 | 113 | 3.2 | 4.8 | 0.00 | 0.00 | 0.00 | 47 | 1006.0 |
| 20260502192655 | 12 | 113 | 0.0 | 1.6 | 0.00 | 0.00 | 0.00 | 46 | 1006.0 |
| 20260502192155 | 12 | 113 | 3.2 | 4.8 | 0.00 | 0.00 | 0.00 | 48 | 1006.0 |
| 20260502191654 | 12 | 113 | 3.2 | 3.2 | 0.00 | 0.00 | 0.00 | 48 | 1006.0 |
| 20260502191154 | 12 | 113 | 3.2 | 3.2 | 0.00 | 0.00 | 0.00 | 47 | 1006.0 |
| 20260502190654 | 12 | 113 | 3.2 | 6.4 | 0.00 | 0.00 | 0.00 | 47 | 1006.0 |
| 20260502190154 | 12 | 113 | 1.6 | 3.2 | 0.00 | 0.00 | 0.00 | 47 | 1006.0 |
| 20260502185654 | 12 | 113 | 3.2 | 3.2 | 0.00 | 0.00 | 0.00 | 47 | 1006.0 |
| 20260502185154 | 12 | 113 | 3.2 | 3.2 | 0.00 | 0.00 | 0.00 | 47 | 1006.0 |
| 20260502184654 | 12 | 113 | 1.6 | 3.2 | 0.00 | 0.00 | 0.00 | 47 | 1006.0 |
| 20260502184155 | 12 | 113 | 1.6 | 3.2 | 0.00 | 0.00 | 0.00 | 47 | 1006.0 |
| 20260502183654 | 12 | 113 | 4.8 | 4.8 | 0.00 | 0.00 | 0.00 | 46 | 1006.0 |
| 20260502183155 | 12 | 113 | 0.0 | 3.2 | 0.00 | 0.00 | 0.00 | 46 | 1006.0 |
| 20260502182654 | 12 | 113 | 3.2 | 3.2 | 0.00 | 0.00 | 0.00 | 47 | 1006.0 |
| 20260502182157 | 12 | 113 | 0.0 | 1.6 | 0.00 | 0.00 | 0.00 | 47 | 1006.0 |
| 20260502181654 | 12 | 113 | 8.0 | 9.7 | 0.00 | 0.00 | 0.00 | 44 | 1006.0 |
| 20260502181155 | 12 | 113 | 4.8 | 4.8 | 0.00 | 0.00 | 0.00 | 45 | 1006.0 |
| 20260502180654 | 13 | 113 | 3.2 | 4.8 | 0.00 | 0.00 | 0.00 | 46 | 1006.0 |
| 20260502180157 | 13 | 113 | 1.6 | 3.2 | 0.00 | 0.00 | 0.00 | 47 | 1006.0 |
| 20260502170154 | 12 | 113 | 0.0 | 1.6 | 0.00 | 0.00 | 0.00 | 48 | 1007.0 |
| 20260502164154 | 12 | 113 | 4.8 | 6.4 | 0.00 | 0.00 | 0.00 | 47 | 1007.0 |
| 20260502163655 | 12 | 113 | 3.2 | 4.8 | 0.00 | 0.00 | 0.00 | 47 | 1007.0 |
| 20260502163155 | 12 | 113 | 4.8 | 6.4 | 0.00 | 0.00 | 0.00 | 47 | 1007.0 |
| 20260502162654 | 12 | 113 | 3.2 | 4.8 | 0.00 | 0.00 | 0.00 | 46 | 1007.0 |
| 20260502162156 | 12 | 113 | 3.2 | 4.8 | 0.00 | 0.00 | 0.00 | 46 | 1007.0 |
| 20260502161654 | 11 | 113 | 3.2 | 4.8 | 0.00 | 0.00 | 0.00 | 47 | 1007.0 |
| 20260502161154 | 11 | 113 | 8.0 | 11.3 | 0.00 | 0.00 | 0.00 | 45 | 1007.0 |
| 20260502160656 | 11 | 113 | 6.4 | 8.0 | 0.00 | 0.00 | 0.00 | 45 | 1008.0 |
| 20260502160154 | 11 | 113 | 1.6 | 3.2 | 0.00 | 0.00 | 0.00 | 47 | 1008.0 |
| 20260502152154 | 11 | 113 | 8.0 | 11.3 | 0.00 | 0.00 | 0.00 | 46 | 1008.0 |
| 20260502151654 | 12 | 113 | 3.2 | 3.2 | 0.00 | 0.00 | 0.00 | 49 | 1007.0 |
| 20260502151154 | 12 | 113 | 1.6 | 3.2 | 0.00 | 0.00 | 0.00 | 50 | 1008.0 |
| 20260502150654 | 12 | 113 | 3.2 | 3.2 | 0.00 | 0.00 | 0.00 | 56 | 1007.0 |
| 20260502150154 | 12 | 113 | 4.8 | 4.8 | 0.00 | 0.00 | 0.00 | 53 | 1007.0 |
| 20260502130655 | 11 | 113 | 0.0 | 1.6 | 0.00 | 0.00 | 0.00 | 66 | 1007.0 |
| 20260502130154 | 11 | 113 | 3.2 | 3.2 | 0.00 | 0.00 | 0.00 | 66 | 1007.0 |
| 20260502123654 | 11 | 113 | 0.0 | 0.0 | 0.00 | 0.00 | 0.00 | 69 | 1007.0 |
| 20260502123155 | 11 | 113 | 0.0 | 3.2 | 0.00 | 0.00 | 0.00 | 68 | 1007.0 |
| 20260502122655 | 11 | 113 | 1.6 | 3.2 | 0.00 | 0.00 | 0.00 | 69 | 1007.0 |
| 20260502122154 | 11 | 113 | 0.0 | 0.0 | 0.00 | 0.00 | 0.00 | 70 | 1007.0 |
| 20260502121654 | 11 | 135 | 0.0 | 0.0 | 0.00 | 0.00 | 0.00 | 71 | 1007.0 |
| 20260502121154 | 11 | 113 | 1.6 | 3.2 | 0.00 | 0.00 | 0.00 | 70 | 1007.0 |
| 20260502120654 | 11 | 113 | 1.6 | 3.2 | 0.00 | 0.00 | 0.00 | 71 | 1007.0 |
| 20260502120154 | 11 | 113 | 1.6 | 3.2 | 0.00 | 0.00 | 0.00 | 71 | 1007.0 |
| 20260502115654 | 11 | 113 | 3.2 | 3.2 | 0.00 | 0.00 | 0.00 | 71 | 1007.0 |
| 20260502115154 | 11 | 135 | 0.0 | 0.0 | 0.00 | 0.00 | 0.00 | 74 | 1007.0 |
| 20260502114654 | 11 | 113 | 4.8 | 8.0 | 0.00 | 0.00 | 0.00 | 72 | 1007.0 |
| 20260502114154 | 11 | 113 | 1.6 | 3.2 | 0.00 | 0.00 | 0.00 | 74 | 1006.0 |
| 20260502113654 | 11 | 113 | 1.6 | 3.2 | 0.00 | 0.00 | 0.00 | 75 | 1007.0 |
| 20260502113154 | 11 | 113 | 1.6 | 3.2 | 0.00 | 0.00 | 0.00 | 76 | 1006.0 |
| 20260502112654 | 11 | 113 | 3.2 | 4.8 | 0.00 | 0.00 | 0.00 | 76 | 1006.0 |
| 20260502112155 | 11 | 113 | 0.0 | 1.6 | 0.00 | 0.00 | 0.00 | 80 | 1006.0 |
| 20260502111656 | 11 | 113 | 1.6 | 3.2 | 0.00 | 0.00 | 0.00 | 81 | 1006.0 |
| 20260502111155 | 11 | 113 | 1.6 | 3.2 | 0.00 | 0.00 | 0.00 | 82 | 1006.0 |
| 20260502110655 | 11 | 113 | 0.0 | 1.6 | 0.00 | 0.00 | 0.00 | 82 | 1006.0 |
| 20260502110155 | 10 | 113 | 0.0 | 1.6 | 0.00 | 0.00 | 0.00 | 83 | 1006.0 |
| 20260502105655 | 10 | 135 | 0.0 | 1.6 | 0.00 | 0.00 | 0.00 | 84 | 1006.0 |
| 20260502105154 | 10 | 135 | 0.0 | 0.0 | 0.00 | 0.00 | 0.00 | 85 | 1006.0 |
| 20260502104655 | 10 | 135 | 0.0 | 0.0 | 0.00 | 0.00 | 0.00 | 87 | 1006.0 |
| 20260502104154 | 10 | 135 | 0.0 | 1.6 | 0.00 | 0.00 | 0.00 | 87 | 1006.0 |
| 20260502103655 | 10 | 135 | 0.0 | 0.0 | 0.00 | 0.00 | 0.00 | 87 | 1006.0 |
| 20260502103154 | 10 | 135 | 0.0 | 0.0 | 0.00 | 0.00 | 0.00 | 88 | 1006.0 |
| 20260502102654 | 10 | 135 | 0.0 | 0.0 | 0.00 | 0.00 | 0.00 | 88 | 1006.0 |
| 20260502102154 | 10 | 135 | 1.6 | 3.2 | 0.00 | 0.00 | 0.00 | 90 | 1007.0 |
| 20260502101656 | 10 | 135 | 0.0 | 0.0 | 0.00 | 0.00 | 0.00 | 90 | 1007.0 |
| 20260502101155 | 10 | 135 | 0.0 | 0.0 | 0.00 | 0.00 | 0.00 | 90 | 1007.0 |
| 20260502100654 | 10 | 135 | 0.0 | 0.0 | 0.00 | 0.00 | 0.00 | 90 | 1007.0 |
| 20260502100154 | 10 | 135 | 0.0 | 0.0 | 0.00 | 0.00 | 0.00 | 90 | 1007.0 |
| 20260502091154 | 10 | 135 | 0.0 | 0.0 | 0.00 | 0.00 | 0.00 | 90 | 1007.0 |
| 20260502090654 | 10 | 135 | 0.0 | 0.0 | 0.00 | 0.00 | 0.00 | 90 | 1006.0 |
| 20260502090155 | 10 | 135 | 0.0 | 0.0 | 0.00 | 0.00 | 0.00 | 90 | 1007.0 |
| 20260502071155 | 10 | 135 | 0.0 | 0.0 | 0.00 | 0.00 | 0.00 | 89 | 1006.0 |
| 20260502070654 | 10 | 135 | 0.0 | 0.0 | 0.00 | 0.00 | 0.00 | 89 | 1006.0 |
| 20260502070154 | 10 | 135 | 0.0 | 0.0 | 0.00 | 0.00 | 0.00 | 89 | 1006.0 |
| 20260502065654 | 10 | 135 | 0.0 | 0.0 | 0.00 | 0.00 | 0.00 | 89 | 1006.0 |
| 20260502065154 | 10 | 135 | 0.0 | 0.0 | 0.00 | 0.00 | 0.00 | 89 | 1006.0 |
| 20260502064655 | 10 | 135 | 0.0 | 0.0 | 0.00 | 0.00 | 0.00 | 89 | 1006.0 |
| 20260502064154 | 10 | 135 | 0.0 | 0.0 | 0.00 | 0.00 | 0.00 | 89 | 1006.0 |
| 20260502063654 | 10 | 135 | 0.0 | 0.0 | 0.00 | 0.00 | 0.00 | 89 | 1006.0 |
| 20260502063154 | 10 | 135 | 0.0 | 0.0 | 0.00 | 0.00 | 0.00 | 89 | 1006.0 |
| 20260502062654 | 10 | 135 | 0.0 | 0.0 | 0.00 | 0.00 | 0.00 | 89 | 1006.0 |
| 20260502062154 | 10 | 113 | 0.0 | 0.0 | 0.00 | 0.00 | 0.00 | 89 | 1006.0 |
| 20260502061654 | 10 | 113 | 0.0 | 0.0 | 0.00 | 0.00 | 0.00 | 89 | 1006.0 |
| 20260502061154 | 9 | 113 | 0.0 | 0.0 | 0.00 | 0.00 | 0.00 | 89 | 1006.0 |
| 20260502060654 | 9 | 135 | 0.0 | 0.0 | 0.00 | 0.00 | 0.00 | 89 | 1006.0 |
| 20260502060154 | 9 | 113 | 4.8 | 4.8 | 0.00 | 0.00 | 0.00 | 89 | 1006.0 |
| 20260502055655 | 9 | 135 | 0.0 | 0.0 | 0.00 | 0.00 | 0.00 | 88 | 1006.0 |
| 20260502055155 | 9 | 135 | 0.0 | 0.0 | 0.00 | 0.00 | 0.00 | 88 | 1006.0 |
| 20260502054654 | 10 | 135 | 0.0 | 0.0 | 0.00 | 0.00 | 0.00 | 89 | 1006.0 |
| 20260502054154 | 10 | 135 | 0.0 | 0.0 | 0.00 | 0.00 | 0.00 | 89 | 1006.0 |
| 20260502053654 | 10 | 135 | 0.0 | 0.0 | 0.00 | 0.00 | 0.00 | 88 | 1006.0 |
| 20260502053154 | 10 | 135 | 0.0 | 0.0 | 0.00 | 0.00 | 0.00 | 88 | 1006.0 |
| 20260502052654 | 10 | 135 | 0.0 | 0.0 | 0.00 | 0.00 | 0.00 | 88 | 1006.0 |
| 20260502052154 | 10 | 135 | 0.0 | 0.0 | 0.00 | 0.00 | 0.00 | 88 | 1006.0 |
| 20260502051653 | 10 | 135 | 0.0 | 0.0 | 0.00 | 0.00 | 0.00 | 88 | 1006.0 |
| 20260502051154 | 10 | 135 | 0.0 | 0.0 | 0.00 | 0.00 | 0.00 | 88 | 1006.0 |
| 20260502050655 | 10 | 135 | 0.0 | 0.0 | 0.00 | 0.00 | 0.00 | 88 | 1006.0 |
| 20260502050155 | 10 | 135 | 0.0 | 0.0 | 0.00 | 0.00 | 0.00 | 88 | 1006.0 |
| 20260502045654 | 10 | 135 | 0.0 | 0.0 | 0.00 | 0.00 | 0.00 | 87 | 1006.0 |
| 20260502045154 | 10 | 135 | 0.0 | 0.0 | 0.00 | 0.00 | 0.00 | 87 | 1006.0 |
| 20260502044655 | 10 | 135 | 0.0 | 0.0 | 0.00 | 0.00 | 0.00 | 87 | 1006.0 |
| 20260502044155 | 10 | 135 | 0.0 | 0.0 | 0.00 | 0.00 | 0.00 | 87 | 1006.0 |
| 20260502043654 | 10 | 135 | 0.0 | 0.0 | 0.00 | 0.00 | 0.00 | 87 | 1006.0 |
| 20260502043154 | 10 | 135 | 0.0 | 0.0 | 0.00 | 0.00 | 0.00 | 86 | 1006.0 |
| 20260502042655 | 10 | 135 | 0.0 | 0.0 | 0.00 | 0.00 | 0.00 | 86 | 1006.0 |
| 20260502042155 | 10 | 135 | 0.0 | 0.0 | 0.00 | 0.00 | 0.00 | 86 | 1006.0 |
| 20260502041655 | 10 | 135 | 0.0 | 0.0 | 0.00 | 0.00 | 0.00 | 86 | 1006.0 |
| 20260502041154 | 10 | 135 | 0.0 | 0.0 | 0.00 | 0.00 | 0.00 | 86 | 1006.0 |
| 20260502040654 | 10 | 135 | 0.0 | 1.6 | 0.00 | 0.00 | 0.00 | 86 | 1006.0 |
| 20260502040156 | 10 | 135 | 0.0 | 0.0 | 0.00 | 0.00 | 0.00 | 85 | 1006.0 |
| 20260502035654 | 10 | 135 | 0.0 | 0.0 | 0.00 | 0.00 | 0.00 | 85 | 1006.0 |
| 20260502035154 | 10 | 135 | 0.0 | 0.0 | 0.00 | 0.00 | 0.00 | 85 | 1006.0 |
| 20260502034654 | 10 | 135 | 0.0 | 0.0 | 0.00 | 0.00 | 0.00 | 84 | 1007.0 |
| 20260502034154 | 10 | 135 | 0.0 | 0.0 | 0.00 | 0.00 | 0.00 | 84 | 1006.0 |
| 20260502033654 | 10 | 135 | 0.0 | 0.0 | 0.00 | 0.00 | 0.00 | 84 | 1006.0 |
| 20260502033155 | 10 | 135 | 0.0 | 0.0 | 0.00 | 0.00 | 0.00 | 84 | 1006.0 |
| 20260502032654 | 11 | 135 | 0.0 | 0.0 | 0.00 | 0.00 | 0.00 | 84 | 1007.0 |
| 20260502032156 | 11 | 135 | 0.0 | 0.0 | 0.00 | 0.00 | 0.00 | 83 | 1006.0 |
| 20260502031654 | 11 | 135 | 0.0 | 0.0 | 0.00 | 0.00 | 0.00 | 83 | 1007.0 |
| 20260502031154 | 11 | 135 | 0.0 | 0.0 | 0.00 | 0.00 | 0.00 | 83 | 1007.0 |
| 20260502030655 | 11 | 135 | 0.0 | 0.0 | 0.00 | 0.00 | 0.00 | 83 | 1007.0 |
| 20260502030154 | 11 | 135 | 0.0 | 0.0 | 0.00 | 0.00 | 0.00 | 82 | 1007.0 |
| 20260502025654 | 11 | 135 | 0.0 | 0.0 | 0.00 | 0.00 | 0.00 | 82 | 1007.0 |
| 20260502025154 | 11 | 135 | 0.0 | 0.0 | 0.00 | 0.00 | 0.00 | 82 | 1007.0 |
| 20260502024654 | 11 | 135 | 0.0 | 1.6 | 0.00 | 0.00 | 0.00 | 82 | 1006.0 |
| 20260502024155 | 11 | 135 | 0.0 | 0.0 | 0.00 | 0.00 | 0.00 | 81 | 1007.0 |
| 20260502023654 | 11 | 135 | 0.0 | 0.0 | 0.00 | 0.00 | 0.00 | 81 | 1007.0 |
| 20260502023201 | 11 | 135 | 0.0 | 0.0 | 0.00 | 0.00 | 0.00 | 82 | 1006.0 |
| 20260502022655 | 11 | 135 | 0.0 | 0.0 | 0.00 | 0.00 | 0.00 | 82 | 1006.0 |